Karla A — TCCR8 — position and weather

sailwx.info

Track history (hours):
 
Tides and Currents Weather Stations Pressure Air Temp Water Temp Dewpoint Dewpoint Depression Visibility Wind Speed Wind Dir Waves Ship Positions

Karla A

Last reported at 2014-Jul-24 14:31 UTC. Time now 2014-Jul-24 15:24 UTC.
Position N 32°22' E 033°20'.

Length 155 m; draft 8.2 m.

Type: Ship (hazmat cat A). MMSI: 271000744.

Date/timePositionNaut miles runAvg speedWind from/ knotsBaromVisibWave heightAir tempDewpointWater temp
2014-Jul-24 14:31N 32°22' E 033°20'1414.4
2014-Jul-24 13:33N 32°32' E 033°32'1414.0
2014-Jul-24 12:33N 32°42' E 033°44'1413.7
2014-Jul-24 11:33N 32°51' E 033°56'1413.6
2014-Jul-24 10:33N 33°01' E 034°07'1413.8
2014-Jul-24 09:33N 33°10' E 034°19'1414.3
2014-Jul-24 08:33N 33°20' E 034°31'1414.4
2014-Jul-24 07:33N 33°30' E 034°44'46 3.8
2014-Jul-23 19:25N 33°56' E 035°30'5110.4
2014-Jul-23 14:33N 34°42' E 035°04'1313.0
2014-Jul-23 13:33N 34°55' E 035°01'  
2014-Jul-16 16:27N 34°13' E 035°10'59 1.6
2014-Jul-15 03:31N 34°16' E 033°58'5313.1
2014-Jul-14 23:29N 33°27' E 033°34'1212.7
2014-Jul-14 22:33N 33°16' E 033°29'  
Track history (hours):
 
Tides and Currents Weather Stations Pressure Air Temp Water Temp Dewpoint Dewpoint Depression Visibility Wind Speed Wind Dir Waves Ship Positions

Karla A

Last reported at 2014-Jul-24 14:31 UTC. Time now 2014-Jul-24 15:24 UTC.
Position N 32°22' E 033°20'.

Length 155 m; draft 8.2 m.

Type: Ship (hazmat cat A). MMSI: 271000744.

Date/timePositionNaut miles runAvg speedWind from/ knotsBaromVisibWave heightAir tempDewpointWater temp
2014-Jul-24 14:31N 32°22' E 033°20'1414.4
2014-Jul-24 13:33N 32°32' E 033°32'1414.0
2014-Jul-24 12:33N 32°42' E 033°44'1413.7
2014-Jul-24 11:33N 32°51' E 033°56'1413.6
2014-Jul-24 10:33N 33°01' E 034°07'1413.8
2014-Jul-24 09:33N 33°10' E 034°19'1414.3
2014-Jul-24 08:33N 33°20' E 034°31'1414.4
2014-Jul-24 07:33N 33°30' E 034°44'46 3.8
2014-Jul-23 19:25N 33°56' E 035°30'5110.4
2014-Jul-23 14:33N 34°42' E 035°04'1313.0
2014-Jul-23 13:33N 34°55' E 035°01'  
2014-Jul-16 16:27N 34°13' E 035°10'59 1.6
2014-Jul-15 03:31N 34°16' E 033°58'5313.1
2014-Jul-14 23:29N 33°27' E 033°34'1212.7
2014-Jul-14 22:33N 33°16' E 033°29'  

Dump ship's entire track history